QPF
0.01 0.02 0.06 0.06 0.06 0.05 0.02 0.02 0.02 0.02 0.02 0.02 0.02 0.02 0.03 0.02 0.02 0.02 0.02 0.03 0.04 0.04 0.05 0.06 0.07 0.06 0.06 0.06 0.07 0.06 0.04 0.03 0.04 0.03 0.02 0.02 0.02 0.03 0.04 0.04 0.05 0.05 0.06
0.01 0.05 0.09 0.05 0.03 0.02 0.02 0.01 0.01 0.01 0.01 0.02 0.03 0.02 0.03 0.02 0.01 0.02 0.02 0.03 0.04 0.05 0.06 0.07 0.08 0.07 0.05 0.04 0.05 0.06 0.05 0.03 0.03 0.03 0.04 0.04 0.03 0.02 0.02 0.02 0.03 0.04 0.04
0.02 0.03 0.03 0.03 0.02 0.01 0.01 0.01 0.00 0.01 0.01 0.02 0.03 0.02 0.02 0.02 0.01 0.02 0.03 0.04 0.04 0.05 0.06 0.08 0.07 0.07 0.07 0.05 0.03 0.04 0.05 0.04 0.03 0.04 0.05 0.02 0.02 0.02 0.01 0.02 0.02 0.02 0.02
0.03 0.02 0.02 0.02 0.02 0.02 0.02 0.02 0.01 0.01 0.01 0.01 0.02 0.03 0.03 0.03 0.02 0.04 0.05 0.05 0.04 0.04 0.06 0.09 0.08 0.07 0.06 0.04 0.04 0.04 0.04 0.04 0.03 0.03 0.03 0.02 0.02 0.02 0.01 0.02 0.02 0.02 0.02
0.02 0.02 0.03 0.03 0.02 0.02 0.02 0.03 0.03 0.01 0.01 0.01 0.02 0.03 0.02 0.04 0.05 0.05 0.05 0.04 0.04 0.05 0.06 0.08 0.08 0.06 0.05 0.04 0.05 0.05 0.04 0.05 0.04 0.05 0.05 0.05 0.04 0.04 0.03 0.03 0.02 0.01 0.01
0.02 0.03 0.03 0.02 0.02 0.01 0.02 0.02 0.02 0.01 0.01 0.02 0.02 0.03 0.03 0.04 0.06 0.04 0.04 0.04 0.05 0.05 0.05 0.05 0.05 0.05 0.04 0.04 0.04 0.05 0.05 0.06 0.05 0.05 0.05 0.06 0.05 0.04 0.05 0.05 0.05 0.03 0.02
0.04 0.04 0.03 0.02 0.01 0.01 0.01 0.02 0.02 0.01 0.02 0.02 0.01 0.02 0.03 0.05 0.04 0.03 0.03 0.03 0.03 0.04 0.05 0.05 0.04 0.04 0.04 0.04 0.05 0.06 0.06 0.05 0.04 0.03 0.03 0.03 0.03 0.02 0.02 0.03 0.04 0.03 0.02
0.06 0.04 0.02 0.02 0.01 0.01 0.01 0.02 0.02 0.02 0.02 0.02 0.01 0.02 0.03 0.03 0.02 0.01 0.02 0.03 0.03 0.04 0.04 0.03 0.05 0.06 0.04 0.03 0.05 0.07 0.06 0.05 0.05 0.05 0.04 0.03 0.02 0.02 0.03 0.03 0.03 0.02 0.01
0.02 0.01 0.01 0.01 0.01 0.01 0.01 0.01 0.01 0.01 0.01 0.02 0.02 0.02 0.02 0.02 0.02 0.02 0.02 0.02 0.02 0.03 0.03 0.03 0.04 0.04 0.05 0.05 0.06 0.08 0.09 0.07 0.05 0.05 0.05 0.04 0.03 0.03 0.03 0.03 0.03 0.03 0.02
0.01 0.01 0.01 0.01 0.01 0.01 0.01 0.01 0.01 0.01 0.01 0.02 0.02 0.02 0.02 0.02 0.03 0.03 0.03 0.02 0.04 0.05 0.04 0.04 0.06 0.08 0.08 0.09 0.10 0.10 0.11 0.09 0.06 0.04 0.04 0.04 0.04 0.04 0.04 0.04 0.03 0.03 0.02
0.01 0.01 0.01 0.01 0.01 0.01 0.02 0.02 0.02 0.02 0.02 0.02 0.02 0.02 0.02 0.02 0.03 0.03 0.04 0.05 0.05 0.05 0.05 0.05 0.05 0.06 0.07 0.07 0.07 0.07 0.07 0.06 0.05 0.05 0.04 0.04 0.04 0.04 0.04 0.04 0.04 0.03 0.03
0.03 0.03 0.02 0.02 0.02 0.02 0.03 0.03 0.05 0.04 0.03 0.02 0.02 0.02 0.02 0.02 0.02 0.03 0.04 0.04 0.03 0.03 0.04 0.04 0.04 0.04 0.05 0.05 0.05 0.05 0.04 0.05 0.05 0.05 0.05 0.05 0.05 0.06 0.06 0.06 0.05 0.05 0.05
0.03 0.05 0.06 0.05 0.04 0.04 0.04 0.05 0.06 0.07 0.07 0.04 0.02 0.02 0.02 0.02 0.03 0.03 0.04 0.03 0.02 0.02 0.03 0.03 0.02 0.03 0.04 0.04 0.04 0.05 0.05 0.05 0.05 0.05 0.06 0.07 0.07 0.07 0.08 0.09 0.09 0.09 0.08
0.03 0.03 0.04 0.06 0.06 0.07 0.07 0.06 0.07 0.10 0.08 0.05 0.04 0.04 0.03 0.03 0.03 0.02 0.03 0.03 0.02 0.03 0.03 0.02 0.02 0.03 0.03 0.04 0.04 0.04 0.04 0.04 0.04 0.04 0.03 0.04 0.05 0.05 0.06 0.07 0.07 0.08 0.07
0.03 0.04 0.04 0.05 0.05 0.07 0.09 0.07 0.05 0.05 0.05 0.05 0.04 0.04 0.04 0.04 0.04 0.03 0.03 0.02 0.02 0.02 0.03 0.03 0.03 0.03 0.04 0.03 0.03 0.04 0.03 0.03 0.04 0.05 0.06 0.06 0.06 0.07 0.07 0.06 0.05 0.06 0.07
0.01 0.01 0.03 0.04 0.05 0.06 0.05 0.04 0.03 0.04 0.06 0.06 0.06 0.04 0.04 0.03 0.03 0.03 0.03 0.02 0.02 0.02 0.03 0.04 0.05 0.05 0.04 0.04 0.03 0.04 0.03 0.04 0.04 0.05 0.07 0.10 0.09 0.09 0.08 0.06 0.05 0.05 0.04
0.01 0.01 0.03 0.04 0.04 0.03 0.02 0.03 0.05 0.06 0.06 0.06 0.06 0.05 0.04 0.04 0.03 0.02 0.02 0.02 0.03 0.03 0.03 0.04 0.06 0.05 0.04 0.04 0.04 0.04 0.04 0.03 0.03 0.04 0.04 0.07 0.09 0.08 0.06 0.06 0.05 0.04 0.05
0.03 0.05 0.05 0.04 0.04 0.03 0.03 0.03 0.04 0.04 0.04 0.03 0.04 0.05 0.05 0.04 0.04 0.04 0.03 0.02 0.02 0.02 0.03 0.04 0.05 0.03 0.03 0.04 0.04 0.05 0.04 0.03 0.03 0.03 0.03 0.04 0.05 0.06 0.07 0.06 0.04 0.04 0.06
0.05 0.06 0.05 0.05 0.03 0.02 0.02 0.03 0.03 0.03 0.04 0.04 0.06 0.07 0.06 0.05 0.05 0.04 0.04 0.04 0.05 0.05 0.04 0.04 0.03 0.02 0.03 0.04 0.04 0.05 0.05 0.04 0.05 0.05 0.05 0.04 0.03 0.05 0.06 0.05 0.04 0.04 0.05
0.03 0.04 0.04 0.03 0.02 0.01 0.02 0.03 0.04 0.05 0.05 0.06 0.07 0.07 0.07 0.07 0.07 0.06 0.06 0.06 0.06 0.05 0.04 0.04 0.04 0.03 0.03 0.04 0.04 0.05 0.06 0.07 0.09 0.09 0.08 0.06 0.04 0.05 0.05 0.04 0.05 0.05 0.07
0.05 0.04 0.04 0.03 0.02 0.01 0.02 0.03 0.05 0.05 0.06 0.06 0.06 0.07 0.08 0.08 0.08 0.07 0.07 0.07 0.07 0.06 0.06 0.06 0.06 0.05 0.03 0.04 0.05 0.05 0.05 0.07 0.08 0.08 0.08 0.08 0.08 0.06 0.04 0.03 0.03 0.04 0.04
0.08 0.07 0.07 0.06 0.05 0.04 0.04 0.06 0.06 0.08 0.09 0.08 0.08 0.08 0.09 0.10 0.10 0.09 0.09 0.09 0.08 0.08 0.08 0.09 0.08 0.06 0.05 0.05 0.05 0.04 0.05 0.06 0.06 0.07 0.07 0.06 0.05 0.03 0.02 0.01 0.01 0.01 0.01
0.07 0.06 0.05 0.05 0.07 0.09 0.09 0.09 0.08 0.10 0.10 0.09 0.08 0.08 0.09 0.08 0.08 0.08 0.10 0.12 0.12 0.10 0.08 0.07 0.06 0.05 0.05 0.05 0.06 0.07 0.08 0.06 0.04 0.04 0.05 0.05 0.04 0.03 0.01 0.01 0.01 0.01 0.00
0.07 0.06 0.05 0.05 0.06 0.08 0.10 0.11 0.10 0.10 0.09 0.08 0.09 0.10 0.09 0.09 0.09 0.09 0.09 0.09 0.11 0.11 0.07 0.05 0.04 0.04 0.05 0.05 0.07 0.11 0.12 0.09 0.06 0.06 0.06 0.06 0.06 0.04 0.02 0.02 0.01 0.01 0.01
0.08 0.08 0.07 0.06 0.06 0.07 0.09 0.09 0.09 0.09 0.09 0.08 0.08 0.07 0.06 0.06 0.07 0.08 0.08 0.09 0.10 0.11 0.09 0.06 0.05 0.03 0.02 0.03 0.03 0.03 0.04 0.04 0.04 0.03 0.03 0.04 0.04 0.03 0.02 0.02 0.02 0.01 0.01
0.08 0.07 0.06 0.05 0.05 0.06 0.06 0.07 0.07 0.07 0.08 0.08 0.08 0.09 0.06 0.04 0.03 0.03 0.03 0.04 0.05 0.06 0.05 0.05 0.04 0.03 0.02 0.02 0.02 0.01 0.01 0.01 0.02 0.02 0.01 0.01 0.01 0.01 0.01 0.01 0.01 0.01 0.01
MSLP
1015.22 1015.43 1015.63 1015.79 1015.91 1016.01 1016.09 1016.20 1016.34 1016.54 1016.78 1017.05 1017.32 1017.55 1017.74 1017.85 1017.90 1017.90 1017.89 1017.89 1017.92 1018.00 1018.13 1018.31 1018.51 1018.72 1018.93 1019.12 1019.28 1019.42 1019.54 1019.64 1019.71 1019.74 1019.71 1019.62 1019.45 1019.21 1018.91 1018.57 1018.23 1017.91 1017.66
1015.25 1015.52 1015.77 1015.95 1016.06 1016.13 1016.17 1016.23 1016.35 1016.53 1016.78 1017.08 1017.38 1017.64 1017.83 1017.93 1017.95 1017.90 1017.82 1017.76 1017.74 1017.78 1017.90 1018.07 1018.29 1018.52 1018.74 1018.93 1019.10 1019.24 1019.36 1019.46 1019.55 1019.62 1019.64 1019.61 1019.49 1019.29 1019.00 1018.65 1018.26 1017.88 1017.54
1015.19 1015.53 1015.83 1016.05 1016.18 1016.22 1016.24 1016.27 1016.37 1016.55 1016.82 1017.14 1017.47 1017.77 1017.97 1018.07 1018.06 1017.96 1017.82 1017.70 1017.62 1017.62 1017.70 1017.87 1018.08 1018.31 1018.53 1018.72 1018.88 1019.00 1019.12 1019.22 1019.33 1019.44 1019.52 1019.55 1019.51 1019.37 1019.13 1018.80 1018.41 1018.00 1017.61
1015.02 1015.42 1015.78 1016.03 1016.18 1016.23 1016.23 1016.25 1016.34 1016.52 1016.81 1017.16 1017.53 1017.85 1018.08 1018.18 1018.14 1018.01 1017.82 1017.63 1017.50 1017.45 1017.51 1017.65 1017.86 1018.08 1018.30 1018.48 1018.62 1018.73 1018.83 1018.94 1019.07 1019.21 1019.35 1019.45 1019.49 1019.43 1019.27 1019.00 1018.64 1018.24 1017.84
1014.71 1015.15 1015.55 1015.85 1016.01 1016.07 1016.08 1016.09 1016.18 1016.37 1016.67 1017.05 1017.45 1017.81 1018.05 1018.15 1018.10 1017.94 1017.70 1017.47 1017.29 1017.20 1017.23 1017.36 1017.55 1017.78 1017.99 1018.17 1018.31 1018.42 1018.52 1018.63 1018.77 1018.94 1019.13 1019.30 1019.42 1019.46 1019.38 1019.19 1018.90 1018.54 1018.14
1014.25 1014.71 1015.14 1015.46 1015.65 1015.72 1015.73 1015.75 1015.84 1016.04 1016.36 1016.76 1017.18 1017.55 1017.81 1017.91 1017.85 1017.66 1017.40 1017.13 1016.91 1016.80 1016.80 1016.92 1017.12 1017.36 1017.59 1017.79 1017.94 1018.06 1018.17 1018.29 1018.45 1018.64 1018.87 1019.10 1019.30 1019.42 1019.43 1019.33 1019.11 1018.81 1018.46
1013.66 1014.11 1014.54 1014.88 1015.09 1015.18 1015.20 1015.22 1015.32 1015.52 1015.85 1016.26 1016.69 1017.07 1017.33 1017.44 1017.37 1017.17 1016.88 1016.58 1016.35 1016.22 1016.22 1016.34 1016.56 1016.82 1017.09 1017.33 1017.52 1017.67 1017.80 1017.94 1018.11 1018.33 1018.59 1018.86 1019.11 1019.30 1019.39 1019.37 1019.24 1019.01 1018.71
1012.97 1013.39 1013.82 1014.17 1014.39 1014.49 1014.53 1014.56 1014.66 1014.87 1015.20 1015.61 1016.04 1016.42 1016.68 1016.78 1016.71 1016.49 1016.19 1015.89 1015.64 1015.50 1015.51 1015.66 1015.90 1016.21 1016.53 1016.83 1017.07 1017.27 1017.45 1017.61 1017.81 1018.03 1018.30 1018.59 1018.87 1019.10 1019.25 1019.30 1019.25 1019.09 1018.84
1012.22 1012.63 1013.05 1013.39 1013.62 1013.75 1013.80 1013.85 1013.97 1014.18 1014.51 1014.91 1015.34 1015.71 1015.96 1016.06 1015.98 1015.76 1015.45 1015.14 1014.89 1014.76 1014.78 1014.95 1015.25 1015.61 1015.99 1016.36 1016.67 1016.93 1017.15 1017.35 1017.55 1017.78 1018.04 1018.32 1018.60 1018.85 1019.04 1019.14 1019.14 1019.04 1018.86
1011.50 1011.89 1012.30 1012.66 1012.91 1013.05 1013.13 1013.21 1013.34 1013.57 1013.90 1014.29 1014.71 1015.07 1015.31 1015.40 1015.32 1015.10 1014.79 1014.49 1014.24 1014.12 1014.16 1014.36 1014.70 1015.11 1015.56 1015.99 1016.37 1016.69 1016.95 1017.17 1017.38 1017.60 1017.83 1018.09 1018.34 1018.58 1018.77 1018.89 1018.94 1018.90 1018.77
1010.88 1011.27 1011.69 1012.06 1012.33 1012.50 1012.62 1012.72 1012.88 1013.13 1013.46 1013.86 1014.26 1014.62 1014.85 1014.94 1014.85 1014.64 1014.35 1014.05 1013.82 1013.72 1013.77 1014.00 1014.36 1014.81 1015.31 1015.79 1016.22 1016.58 1016.87 1017.11 1017.31 1017.49 1017.69 1017.89 1018.10 1018.30 1018.48 1018.61 1018.68 1018.68 1018.61
1010.44 1010.84 1011.27 1011.66 1011.95 1012.16 1012.31 1012.45 1012.64 1012.91 1013.25 1013.65 1014.05 1014.40 1014.63 1014.72 1014.65 1014.45 1014.18 1013.90 1013.69 1013.60 1013.66 1013.90 1014.27 1014.74 1015.25 1015.76 1016.21 1016.59 1016.89 1017.11 1017.29 1017.44 1017.58 1017.72 1017.87 1018.03 1018.18 1018.30 1018.38 1018.42 1018.39
1010.21 1010.64 1011.09 1011.49 1011.81 1012.04 1012.22 1012.40 1012.62 1012.90 1013.26 1013.66 1014.06 1014.40 1014.63 1014.72 1014.67 1014.50 1014.26 1014.01 1013.82 1013.74 1013.81 1014.04 1014.40 1014.86 1015.35 1015.84 1016.28 1016.65 1016.93 1017.13 1017.26 1017.36 1017.45 1017.53 1017.63 1017.74 1017.85 1017.95 1018.04 1018.10 1018.12
1010.23 1010.69 1011.15 1011.55 1011.87 1012.12 1012.32 1012.52 1012.76 1013.06 1013.42 1013.82 1014.21 1014.54 1014.78 1014.88 1014.85 1014.71 1014.51 1014.29 1014.13 1014.06 1014.13 1014.33 1014.66 1015.06 1015.51 1015.95 1016.34 1016.66 1016.90 1017.05 1017.14 1017.20 1017.23 1017.26 1017.31 1017.38 1017.46 1017.56 1017.65 1017.73 1017.78
1010.49 1010.96 1011.41 1011.79 1012.10 1012.34 1012.55 1012.76 1013.00 1013.30 1013.65 1014.04 1014.41 1014.74 1014.97 1015.08 1015.08 1014.97 1014.81 1014.63 1014.49 1014.43 1014.48 1014.65 1014.91 1015.25 1015.61 1015.97 1016.28 1016.53 1016.70 1016.80 1016.85 1016.86 1016.85 1016.85 1016.87 1016.92 1016.98 1017.07 1017.17 1017.26 1017.34
1010.95 1011.41 1011.82 1012.17 1012.45 1012.67 1012.86 1013.05 1013.28 1013.57 1013.90 1014.25 1014.60 1014.90 1015.12 1015.23 1015.25 1015.17 1015.05 1014.90 1014.78 1014.73 1014.75 1014.87 1015.06 1015.30 1015.56 1015.81 1016.02 1016.18 1016.28 1016.32 1016.32 1016.30 1016.28 1016.27 1016.28 1016.32 1016.39 1016.48 1016.58 1016.70 1016.79
1011.55 1011.97 1012.33 1012.63 1012.86 1013.04 1013.20 1013.37 1013.57 1013.82 1014.11 1014.42 1014.72 1014.98 1015.17 1015.28 1015.30 1015.25 1015.15 1015.04 1014.94 1014.88 1014.88 1014.93 1015.04 1015.17 1015.31 1015.44 1015.54 1015.60 1015.62 1015.61 1015.58 1015.55 1015.52 1015.52 1015.55 1015.60 1015.69 1015.79 1015.91 1016.03 1016.15
1012.22 1012.57 1012.87 1013.10 1013.28 1013.42 1013.55 1013.69 1013.86 1014.06 1014.30 1014.55 1014.79 1014.99 1015.14 1015.23 1015.24 1015.20 1015.12 1015.03 1014.94 1014.87 1014.83 1014.82 1014.84 1014.87 1014.89 1014.90 1014.89 1014.85 1014.80 1014.74 1014.69 1014.65 1014.64 1014.66 1014.72 1014.80 1014.91 1015.04 1015.18 1015.31 1015.44
1012.87 1013.16 1013.40 1013.58 1013.71 1013.82 1013.91 1014.02 1014.15 1014.31 1014.49 1014.67 1014.84 1014.98 1015.07 1015.12 1015.12 1015.08 1015.01 1014.92 1014.84 1014.76 1014.69 1014.62 1014.55 1014.48 1014.39 1014.28 1014.17 1014.04 1013.93 1013.83 1013.76 1013.73 1013.74 1013.79 1013.88 1014.00 1014.14 1014.28 1014.43 1014.58 1014.72
1013.46 1013.69 1013.88 1014.02 1014.13 1014.22 1014.30 1014.38 1014.48 1014.59 1014.71 1014.82 1014.92 1014.98 1015.02 1015.03 1015.00 1014.95 1014.88 1014.80 1014.72 1014.63 1014.53 1014.41 1014.27 1014.11 1013.92 1013.72 1013.51 1013.31 1013.14 1013.01 1012.92 1012.90 1012.93 1013.00 1013.12 1013.26 1013.42 1013.58 1013.74 1013.89 1014.03
1013.96 1014.15 1014.31 1014.43 1014.54 1014.62 1014.70 1014.77 1014.85 1014.92 1014.98 1015.02 1015.05 1015.05 1015.03 1014.99 1014.94 1014.88 1014.81 1014.74 1014.66 1014.57 1014.45 1014.29 1014.10 1013.87 1013.60 1013.32 1013.04 1012.78 1012.56 1012.39 1012.29 1012.26 1012.29 1012.38 1012.50 1012.65 1012.81 1012.97 1013.12 1013.26 1013.40
1014.36 1014.54 1014.69 1014.81 1014.93 1015.02 1015.10 1015.17 1015.22 1015.26 1015.27 1015.25 1015.21 1015.15 1015.09 1015.01 1014.94 1014.88 1014.83 1014.77 1014.71 1014.62 1014.49 1014.32 1014.09 1013.81 1013.50 1013.16 1012.82 1012.51 1012.25 1012.05 1011.92 1011.87 1011.89 1011.96 1012.06 1012.19 1012.33 1012.46 1012.59 1012.71 1012.84
1014.70 1014.86 1015.02 1015.16 1015.29 1015.40 1015.49 1015.55 1015.58 1015.57 1015.53 1015.46 1015.37 1015.26 1015.16 1015.07 1015.00 1014.95 1014.92 1014.89 1014.85 1014.78 1014.67 1014.49 1014.25 1013.95 1013.60 1013.23 1012.86 1012.50 1012.21 1011.97 1011.82 1011.73 1011.71 1011.74 1011.80 1011.88 1011.97 1012.06 1012.14 1012.23 1012.32
1014.98 1015.15 1015.32 1015.48 1015.62 1015.73 1015.81 1015.85 1015.85 1015.80 1015.71 1015.59 1015.46 1015.32 1015.20 1015.11 1015.06 1015.04 1015.04 1015.06 1015.06 1015.02 1014.94 1014.78 1014.54 1014.24 1013.88 1013.49 1013.10 1012.72 1012.39 1012.13 1011.93 1011.80 1011.73 1011.70 1011.70 1011.71 1011.72 1011.74 1011.76 1011.79 1011.84
1015.24 1015.42 1015.59 1015.75 1015.88 1015.98 1016.04 1016.04 1016.00 1015.90 1015.76 1015.60 1015.44 1015.29 1015.17 1015.10 1015.08 1015.10 1015.16 1015.23 1015.28 1015.29 1015.24 1015.11 1014.90 1014.61 1014.26 1013.87 1013.47 1013.09 1012.74 1012.45 1012.21 1012.03 1011.90 1011.80 1011.72 1011.65 1011.58 1011.51 1011.46 1011.42 1011.41
1015.49 1015.67 1015.83 1015.97 1016.08 1016.15 1016.16 1016.11 1016.01 1015.86 1015.67 1015.48 1015.30 1015.15 1015.05 1015.01 1015.04 1015.13 1015.25 1015.37 1015.48 1015.55 1015.54 1015.45 1015.27 1015.00 1014.67 1014.30 1013.90 1013.52 1013.17 1012.86 1012.59 1012.37 1012.19 1012.02 1011.86 1011.71 1011.55 1011.40 1011.25 1011.13 1011.05
Thickness
5804 5802 5799 5794 5789 5784 5779 5774 5769 5765 5761 5757 5752 5749 5747 5747 5746 5745 5744 5744 5743 5742 5740 5740 5738 5737 5736 5735 5735 5733 5732 5730 5730 5728 5726 5728 5730 5730 5731 5731 5730 5730 5729
5801 5801 5799 5796 5791 5786 5781 5776 5772 5768 5764 5761 5757 5753 5751 5749 5748 5746 5745 5744 5743 5742 5741 5739 5738 5737 5736 5735 5734 5733 5731 5730 5730 5727 5722 5720 5722 5727 5729 5729 5728 5728 5728
5802 5801 5799 5796 5793 5788 5784 5781 5775 5771 5767 5763 5758 5754 5750 5748 5746 5745 5744 5744 5743 5742 5741 5740 5738 5737 5736 5734 5734 5733 5732 5729 5729 5729 5724 5718 5716 5719 5724 5725 5726 5726 5725
5808 5803 5801 5797 5795 5792 5788 5783 5778 5773 5769 5764 5759 5754 5749 5745 5745 5745 5745 5744 5743 5742 5741 5739 5738 5737 5735 5735 5734 5734 5733 5730 5727 5726 5727 5726 5724 5718 5716 5720 5722 5723 5722
5812 5808 5805 5802 5800 5796 5791 5785 5780 5775 5771 5766 5761 5756 5751 5749 5747 5746 5744 5743 5742 5741 5741 5739 5738 5737 5736 5735 5734 5733 5732 5731 5729 5726 5725 5724 5722 5721 5716 5714 5716 5718 5719
5817 5813 5810 5805 5801 5797 5792 5786 5780 5776 5772 5767 5763 5758 5753 5750 5747 5745 5743 5743 5742 5741 5741 5740 5738 5737 5735 5734 5733 5733 5731 5730 5729 5727 5726 5724 5721 5719 5717 5714 5714 5714 5715
5817 5813 5809 5805 5801 5796 5792 5786 5781 5776 5773 5768 5764 5761 5756 5752 5749 5747 5745 5743 5741 5741 5740 5740 5738 5736 5735 5734 5733 5732 5731 5730 5728 5727 5726 5725 5724 5723 5719 5716 5713 5712 5712
5818 5815 5813 5808 5803 5799 5793 5787 5782 5778 5774 5770 5765 5762 5758 5754 5751 5749 5747 5744 5743 5742 5741 5739 5738 5736 5734 5733 5731 5730 5729 5729 5727 5727 5725 5724 5723 5722 5720 5717 5713 5709 5708
5817 5816 5813 5809 5805 5800 5795 5790 5784 5779 5775 5771 5766 5762 5759 5755 5753 5750 5748 5746 5744 5742 5741 5739 5737 5735 5733 5731 5730 5728 5727 5726 5725 5724 5723 5722 5721 5720 5718 5717 5715 5710 5705
5815 5814 5811 5808 5804 5801 5796 5791 5786 5780 5775 5772 5767 5764 5760 5757 5753 5750 5747 5745 5744 5742 5740 5738 5736 5733 5731 5730 5728 5726 5725 5723 5722 5721 5720 5719 5718 5716 5715 5714 5712 5710 5706
5811 5810 5808 5806 5802 5798 5794 5789 5785 5779 5775 5772 5768 5764 5761 5757 5753 5749 5747 5745 5742 5740 5738 5736 5734 5732 5729 5727 5725 5723 5722 5720 5719 5718 5717 5716 5715 5713 5712 5710 5708 5706 5704
5808 5807 5806 5803 5799 5794 5791 5788 5784 5779 5776 5772 5767 5763 5760 5756 5752 5749 5746 5743 5740 5739 5736 5734 5732 5730 5727 5725 5723 5721 5719 5717 5716 5715 5714 5712 5711 5709 5707 5705 5703 5701 5700
5804 5803 5801 5799 5795 5792 5789 5787 5783 5779 5775 5770 5766 5762 5758 5754 5751 5748 5745 5742 5739 5736 5734 5732 5729 5727 5724 5722 5720 5718 5717 5715 5713 5712 5711 5709 5707 5705 5703 5701 5699 5697 5696
5798 5797 5795 5794 5793 5790 5788 5785 5782 5779 5774 5769 5764 5761 5757 5754 5750 5746 5743 5740 5737 5734 5731 5728 5726 5724 5721 5719 5717 5715 5713 5711 5709 5708 5706 5705 5703 5701 5699 5697 5695 5692 5690
5793 5793 5792 5791 5789 5787 5785 5783 5780 5777 5772 5767 5762 5759 5756 5752 5748 5743 5740 5736 5734 5731 5727 5724 5722 5719 5717 5715 5713 5711 5709 5706 5704 5702 5701 5700 5698 5697 5695 5693 5691 5688 5685
5789 5789 5789 5788 5786 5784 5782 5780 5778 5775 5770 5764 5759 5756 5752 5748 5744 5739 5735 5732 5729 5726 5723 5720 5717 5715 5713 5711 5709 5707 5704 5702 5699 5696 5695 5694 5693 5691 5689 5688 5686 5684 5681
5786 5785 5785 5785 5785 5784 5782 5778 5775 5772 5767 5762 5757 5752 5748 5744 5740 5736 5731 5728 5724 5721 5718 5715 5712 5710 5708 5705 5703 5701 5698 5696 5694 5692 5690 5689 5687 5685 5683 5681 5679 5677 5674
5783 5783 5782 5781 5781 5781 5779 5776 5771 5766 5762 5758 5754 5750 5746 5741 5736 5732 5728 5723 5719 5716 5712 5710 5707 5705 5703 5700 5698 5695 5692 5690 5688 5686 5684 5682 5681 5679 5677 5674 5671 5669 5666
5781 5781 5782 5780 5777 5776 5774 5770 5766 5762 5758 5753 5750 5747 5743 5737 5733 5728 5723 5720 5715 5711 5707 5704 5702 5699 5697 5694 5692 5689 5686 5683 5681 5679 5677 5676 5674 5672 5670 5668 5664 5661 5658
5777 5779 5779 5776 5772 5770 5766 5761 5758 5756 5753 5750 5746 5742 5738 5734 5730 5725 5720 5716 5711 5706 5701 5698 5696 5693 5690 5687 5685 5683 5680 5677 5674 5672 5669 5667 5665 5663 5661 5659 5657 5653 5650
5769 5772 5771 5769 5767 5764 5760 5754 5751 5749 5748 5745 5740 5736 5733 5729 5725 5719 5715 5710 5705 5699 5695 5691 5689 5686 5683 5681 5679 5676 5674 5671 5668 5665 5661 5659 5657 5655 5653 5651 5648 5645 5642
5759 5761 5761 5759 5759 5757 5753 5748 5745 5744 5741 5737 5733 5728 5725 5723 5718 5713 5708 5703 5698 5692 5688 5684 5681 5679 5676 5674 5672 5670 5667 5664 5661 5658 5654 5651 5649 5647 5645 5642 5639 5637 5634
5749 5750 5750 5749 5749 5748 5746 5742 5740 5736 5732 5729 5725 5721 5717 5713 5710 5706 5701 5696 5691 5686 5682 5678 5674 5672 5669 5667 5664 5661 5659 5657 5654 5650 5647 5643 5640 5638 5635 5633 5630 5628 5625
5738 5738 5739 5738 5737 5738 5737 5734 5731 5728 5724 5720 5716 5712 5708 5703 5699 5696 5693 5689 5684 5680 5676 5672 5669 5666 5663 5659 5656 5653 5650 5648 5645 5642 5638 5635 5632 5628 5625 5623 5620 5618 5615
5725 5726 5726 5726 5725 5726 5726 5724 5722 5720 5715 5712 5708 5701 5697 5694 5690 5687 5683 5681 5678 5675 5671 5667 5664 5660 5656 5653 5650 5646 5643 5640 5637 5633 5630 5627 5623 5620 5617 5614 5611 5608 5606
5713 5714 5716 5715 5713 5712 5713 5713 5712 5710 5706 5702 5697 5692 5686 5684 5681 5677 5672 5669 5667 5664 5662 5659 5656 5653 5649 5645 5641 5638 5635 5632 5628 5625 5622 5618 5615 5612 5609 5606 5603 5600 5597